GFSFLT2_850_dewp_051.txt.gz
Dewpoint
2 2 1 1 1 1 0 -0 0 1 2 2 1 1 1 1 0 -0 -1 -1 -1 -1 -0 -0 -0 -0 -0
1 1 1 1 1 0 0 -1 -1 -0 0 -0 -1 -1 -1 -1 -1 -1 -1 -1 -1 -1 -1 -1 -1 -2 -2
1 1 0 0 -0 -0 -1 -1 -1 -2 -1 -1 -2 -2 -2 -1 -1 -2 -2 -2 -2 -2 -2 -3 -6 -5 -4
0 -0 -0 -1 -1 -1 -2 -2 -1 -1 -2 -2 -2 -2 -2 -2 -2 -2 -2 -3 -4 -6 -10 -14 -18 -11 -7
-2 -1 -2 -2 -2 -3 -3 -4 -5 -5 -5 -5 -6 -8 -10 -12 -13 -14 -14 -15 -16 -20 -23 -23 -22 -14 -9
-2 -3 -4 -6 -9 -13 -16 -17 -17 -18 -19 -20 -20 -22 -23 -24 -25 -25 -26 -26 -25 -21 -18 -16 -14 -6 -5
-21 -21 -21 -20 -20 -19 -19 -18 -19 -19 -21 -25 -25 -24 -23 -22 -21 -19 -18 -17 -15 -15 -14 -14 -11 -9 -7
-23 -22 -21 -20 -20 -19 -18 -19 -21 -21 -22 -22 -18 -14 -14 -14 -14 -14 -14 -13 -13 -13 -13 -13 -12 -10 -11
-24 -23 -22 -21 -21 -20 -20 -21 -22 -19 -15 -13 -13 -13 -13 -13 -12 -12 -12 -13 -13 -13 -13 -13 -12 -12 -12
-24 -24 -25 -24 -24 -23 -22 -21 -17 -14 -13 -12 -12 -11 -11 -11 -12 -11 -11 -11 -12 -12 -12 -11 -11 -11 -12
-25 -25 -24 -23 -22 -19 -16 -14 -13 -12 -12 -11 -11 -10 -10 -10 -11 -10 -10 -10 -10 -11 -11 -11 -11 -11 -12
-23 -22 -20 -17 -14 -13 -12 -12 -12 -11 -10 -10 -10 -10 -9 -9 -10 -10 -10 -10 -10 -10 -10 -11 -11 -11 -11
-19 -15 -13 -13 -12 -12 -12 -11 -11 -11 -11 -10 -10 -10 -10 -9 -10 -10 -10 -10 -10 -10 -10 -10 -9 -10 -10
-16 -14 -13 -13 -13 -12 -12 -12 -12 -12 -12 -12 -12 -12 -11 -10 -10 -10 -9 -9 -10 -10 -10 -10 -10 -10 -10
-18 -16 -15 -15 -14 -14 -14 -14 -14 -13 -13 -14 -14 -13 -11 -9 -9 -9 -10 -10 -10 -10 -10 -10 -10 -10 -10
-21 -20 -19 -18 -17 -17 -17 -17 -16 -15 -14 -14 -11 -9 -9 -9 -10 -10 -10 -10 -10 -11 -11 -11 -12 -12 -11
-23 -22 -21 -20 -20 -19 -18 -18 -17 -16 -13 -10 -9 -9 -9 -10 -10 -10 -10 -10 -10 -10 -10 -10 -11 -12 -11

GFSFLT2_850_dewp_054.txt.gz
Dewpoint
2 2 1 1 1 1 0 -0 0 1 1 2 2 2 2 2 2 2 2 2 1 0 0 0 0 0 0
1 1 1 1 0 0 -0 -0 -1 1 1 1 2 1 0 -1 1 1 1 -0 -1 -1 -1 -1 -0 -0 -1
1 1 1 0 -0 -1 -1 -1 -1 -1 -1 -1 -1 -1 -2 -2 -2 -2 -2 -1 -1 -1 -2 -1 -1 -1 -2
0 -0 -1 -1 -1 -2 -2 -2 -2 -2 -2 -2 -2 -2 -2 -2 -2 -2 -2 -2 -2 -2 -2 -3 -4 -8 -11
-2 -2 -2 -2 -3 -4 -5 -8 -10 -11 -10 -10 -9 -9 -11 -11 -10 -9 -8 -8 -8 -11 -13 -15 -19 -22 -23
-3 -4 -6 -10 -18 -19 -20 -21 -14 -19 -23 -23 -24 -25 -25 -25 -25 -25 -24 -24 -24 -25 -26 -26 -23 -20 -14
-21 -20 -19 -21 -21 -20 -20 -20 -14 -17 -25 -24 -25 -25 -24 -24 -24 -23 -22 -22 -22 -20 -18 -17 -16 -13 -5
-24 -22 -21 -21 -22 -22 -20 -20 -19 -17 -23 -19 -15 -14 -14 -14 -15 -14 -14 -14 -14 -14 -14 -14 -13 -10 -6
-25 -25 -26 -26 -25 -22 -19 -19 -16 -14 -15 -13 -12 -13 -13 -13 -13 -13 -13 -13 -13 -13 -13 -13 -11 -7 -7
-24 -25 -25 -25 -25 -24 -23 -21 -17 -12 -13 -13 -12 -12 -11 -11 -12 -12 -11 -11 -11 -12 -12 -12 -12 -12 -11
-25 -25 -24 -23 -22 -19 -16 -14 -13 -12 -12 -11 -11 -10 -10 -10 -11 -11 -10 -10 -10 -10 -10 -11 -12 -11 -11
-23 -22 -19 -17 -14 -13 -13 -13 -12 -12 -11 -11 -11 -10 -10 -10 -11 -10 -10 -10 -10 -10 -10 -10 -10 -10 -11
-20 -17 -15 -14 -13 -13 -13 -13 -12 -12 -12 -11 -11 -11 -11 -11 -11 -11 -11 -10 -10 -10 -10 -10 -10 -10 -10
-19 -16 -15 -14 -13 -13 -13 -13 -13 -13 -13 -13 -13 -13 -13 -13 -12 -11 -10 -9 -9 -10 -10 -10 -10 -10 -10
-21 -19 -18 -17 -16 -16 -16 -16 -16 -16 -15 -15 -15 -15 -13 -11 -10 -9 -9 -9 -10 -10 -10 -10 -11 -11 -11
-23 -22 -21 -20 -20 -19 -19 -18 -18 -17 -17 -16 -15 -11 -9 -9 -9 -10 -10 -10 -10 -10 -10 -10 -11 -11 -11
-23 -23 -22 -22 -21 -21 -20 -19 -18 -18 -16 -13 -10 -9 -9 -9 -9 -10 -10 -10 -10 -10 -10 -10 -10 -10 -10

GFSFLT2_850_dewp_057.txt.gz
Dewpoint
2 2 2 1 0 0 0 -0 -0 0 1 1 2 2 2 2 3 3 3 3 2 2 2 2 1 1 1
2 1 1 0 0 0 -0 -1 -1 -1 0 1 1 1 1 1 1 1 1 1 1 1 1 0 -0 0 0
1 1 0 0 0 -1 -1 -1 -2 -1 -1 -1 -0 -0 -0 -0 -1 -2 -2 -1 -1 -1 -2 -1 -1 -1 -1
-0 -0 -0 -1 -1 -2 -2 -2 -3 -3 -3 -2 -2 -2 -2 -2 -2 -2 -2 -2 -2 -2 -2 -2 -2 -2 -2
-1 -2 -2 -2 -3 -4 -8 -13 -15 -20 -20 -20 -19 -18 -17 -15 -12 -9 -8 -8 -7 -5 -5 -5 -7 -11 -13
-3 -3 -3 -7 -13 -17 -20 -22 -17 -14 -21 -26 -27 -27 -27 -27 -27 -27 -27 -26 -25 -24 -22 -22 -22 -23 -25
-20 -12 -13 -16 -20 -21 -21 -21 -17 -20 -25 -27 -24 -25 -23 -23 -24 -22 -23 -23 -24 -25 -26 -25 -22 -20 -18
-25 -23 -22 -22 -21 -20 -22 -23 -22 -14 -21 -21 -17 -16 -15 -15 -15 -15 -15 -15 -15 -15 -15 -15 -15 -15 -15
-27 -27 -27 -27 -26 -24 -24 -21 -21 -13 -15 -14 -14 -15 -14 -13 -13 -13 -13 -13 -12 -13 -13 -13 -13 -13 -12
-27 -27 -27 -27 -27 -26 -25 -23 -19 -13 -11 -13 -13 -12 -12 -10 -12 -12 -11 -11 -11 -11 -11 -12 -12 -12 -13
-26 -26 -25 -25 -23 -21 -18 -15 -14 -13 -13 -12 -12 -11 -11 -12 -12 -11 -11 -11 -11 -11 -11 -10 -10 -10 -11
-25 -23 -22 -19 -17 -15 -14 -14 -13 -13 -12 -12 -12 -12 -11 -12 -12 -11 -11 -11 -11 -11 -10 -10 -10 -10 -10
-23 -21 -18 -16 -14 -14 -14 -13 -13 -13 -13 -13 -13 -12 -12 -12 -12 -12 -12 -11 -10 -10 -10 -10 -10 -10 -10
-22 -19 -17 -16 -15 -14 -15 -14 -15 -15 -15 -15 -14 -14 -14 -14 -14 -13 -11 -10 -9 -9 -10 -10 -11 -11 -11
-23 -22 -20 -18 -18 -18 -18 -18 -17 -17 -17 -16 -16 -15 -15 -15 -13 -10 -9 -9 -10 -10 -10 -10 -10 -11 -11
-25 -24 -23 -22 -21 -21 -20 -20 -19 -19 -18 -18 -16 -15 -14 -11 -10 -10 -10 -10 -10 -10 -10 -10 -10 -11 -11
-25 -24 -24 -23 -22 -22 -21 -20 -19 -19 -17 -15 -13 -11 -9 -9 -9 -9 -10 -9 -10 -10 -10 -10 -10 -10 -10

GFSFLT2_850_dewp_060.txt.gz
Dewpoint
3 3 2 1 0 0 0 -0 -1 -1 -0 -0 1 1 1 1 3 3 3 4 4 3 3 3 2 2 2
2 1 1 1 0 0 -0 -1 -1 -1 -1 -0 0 0 0 0 0 1 1 1 1 1 2 1 1 1 0
1 0 1 0 0 0 -1 -1 -2 -2 -2 -2 -1 -1 -1 -0 -0 -1 -1 -1 -1 -1 -0 -0 0 -1 -1
-0 -1 -1 -1 -1 -2 -2 -3 -4 -7 -9 -9 -6 -4 -3 -3 -2 -2 -2 -2 -2 -2 -2 -2 -2 -2 -1
-1 -1 -2 -3 -5 -8 -13 -19 -21 -23 -21 -19 -23 -23 -22 -22 -20 -19 -18 -16 -12 -8 -5 -4 -3 -3 -3
-5 -7 -8 -9 -13 -20 -24 -26 -25 -22 -23 -25 -29 -26 -27 -27 -27 -28 -29 -29 -28 -27 -25 -23 -22 -22 -22
-23 -18 -16 -20 -20 -24 -26 -26 -25 -25 -25 -27 -26 -23 -23 -20 -20 -18 -19 -20 -20 -20 -22 -25 -26 -26 -24
-27 -25 -24 -25 -25 -26 -27 -27 -25 -23 -21 -21 -19 -17 -16 -15 -15 -14 -14 -15 -15 -14 -14 -15 -15 -15 -15
-28 -28 -28 -28 -28 -28 -29 -28 -27 -19 -18 -15 -16 -15 -15 -14 -13 -13 -13 -13 -13 -12 -12 -13 -13 -13 -14
-26 -27 -27 -28 -29 -29 -28 -26 -21 -16 -12 -13 -14 -14 -13 -13 -12 -12 -12 -12 -12 -11 -11 -11 -11 -11 -12
-27 -27 -27 -27 -26 -23 -20 -17 -15 -14 -14 -13 -13 -13 -13 -13 -14 -13 -13 -12 -12 -11 -11 -11 -11 -11 -11
-27 -26 -24 -23 -20 -17 -15 -14 -14 -14 -13 -13 -13 -13 -13 -14 -14 -13 -12 -12 -12 -12 -11 -10 -10 -10 -10
-26 -25 -23 -20 -17 -15 -14 -14 -14 -14 -14 -14 -14 -14 -14 -14 -13 -13 -14 -13 -11 -10 -9 -10 -10 -10 -10
-26 -24 -22 -21 -18 -16 -16 -16 -17 -16 -16 -16 -16 -16 -15 -15 -15 -15 -14 -12 -10 -10 -10 -10 -10 -11 -11
-26 -26 -24 -23 -22 -21 -20 -20 -19 -19 -19 -18 -18 -17 -17 -16 -15 -14 -11 -10 -10 -10 -10 -10 -10 -11 -11
-26 -26 -25 -25 -24 -23 -22 -22 -21 -20 -19 -19 -18 -17 -15 -13 -11 -11 -11 -11 -11 -10 -10 -10 -10 -11 -11
-25 -25 -25 -24 -24 -23 -22 -22 -21 -20 -18 -17 -14 -12 -10 -10 -11 -11 -11 -12 -11 -12 -11 -11 -11 -11 -11

GFSFLT2_850_dewp_063.txt.gz
Dewpoint
4 4 4 3 1 0 0 -0 -1 -1 -1 -1 0 1 1 1 2 3 3 3 4 4 4 4 3 3 3
3 3 2 1 1 0 0 -0 -1 -2 -2 -2 -1 -1 0 0 0 1 2 2 2 3 3 3 3 2 2
2 1 0 1 0 -0 -0 -1 -1 -2 -3 -3 -3 -2 -1 -1 -1 -0 -0 -0 -0 -0 -0 -1 -0 -0 0
0 0 -0 -1 -1 -2 -2 -2 -4 -8 -14 -18 -20 -16 -11 -6 -4 -3 -2 -2 -2 -2 -2 -2 -2 -2 -2
-0 -1 -2 -4 -6 -7 -10 -16 -22 -25 -24 -20 -22 -24 -26 -27 -26 -24 -23 -21 -18 -16 -12 -8 -5 -4 -3
-2 -4 -7 -9 -10 -15 -21 -24 -25 -25 -23 -26 -28 -28 -28 -28 -28 -28 -28 -30 -30 -30 -29 -27 -25 -23 -22
-21 -18 -16 -15 -17 -21 -26 -26 -26 -26 -25 -27 -25 -22 -21 -20 -19 -18 -17 -18 -20 -20 -19 -19 -22 -25 -26
-25 -23 -21 -23 -23 -23 -25 -25 -25 -25 -23 -21 -19 -16 -16 -16 -15 -15 -15 -15 -15 -14 -14 -14 -14 -15 -15
-28 -28 -28 -28 -28 -28 -29 -28 -27 -23 -18 -16 -16 -15 -15 -14 -13 -13 -13 -13 -12 -12 -12 -12 -12 -12 -13
-25 -26 -27 -27 -28 -29 -28 -27 -23 -18 -14 -15 -15 -15 -14 -13 -13 -13 -13 -13 -12 -12 -11 -11 -11 -11 -11
-27 -27 -27 -27 -26 -25 -22 -19 -16 -15 -15 -15 -15 -14 -15 -15 -15 -14 -13 -12 -12 -12 -12 -12 -11 -11 -11
-28 -27 -26 -24 -23 -19 -17 -16 -15 -14 -14 -14 -14 -15 -15 -16 -15 -14 -13 -13 -14 -13 -12 -11 -10 -10 -10
-27 -26 -25 -23 -20 -18 -16 -15 -14 -15 -14 -14 -15 -15 -16 -15 -15 -15 -15 -15 -14 -11 -10 -10 -10 -10 -10
-27 -26 -24 -22 -20 -19 -17 -17 -16 -16 -16 -17 -17 -17 -17 -16 -16 -16 -15 -14 -13 -11 -10 -11 -10 -10 -11
-27 -27 -26 -24 -23 -22 -21 -20 -20 -20 -20 -20 -19 -18 -18 -17 -16 -14 -13 -12 -12 -11 -11 -11 -12 -11 -11
-25 -26 -26 -25 -25 -24 -24 -23 -22 -22 -21 -20 -19 -18 -15 -13 -13 -14 -13 -14 -14 -13 -12 -12 -14 -14 -13
-24 -24 -25 -25 -25 -24 -24 -23 -22 -22 -21 -19 -17 -14 -11 -11 -14 -14 -15 -15 -15 -15 -14 -13 -14 -15 -14

GFSFLT2_850_dewp_066.txt.gz
Dewpoint
5 5 4 3 3 2 0 -0 -0 -1 -2 -2 -1 1 1 2 2 1 1 2 3 3 4 4 4 5 4
4 3 3 2 2 1 0 -0 -1 -1 -2 -2 -2 -1 -0 0 1 1 2 3 3 3 4 3 3 4 4
3 2 2 1 0 0 -0 -0 -1 -1 -2 -3 -4 -3 -2 -1 -1 -0 -0 0 0 1 2 2 2 3 2
1 1 0 -0 -0 -1 -1 -2 -3 -5 -10 -17 -20 -20 -15 -8 -4 -2 -1 -1 -1 -1 -1 -1 -2 -2 -2
0 -0 -1 -2 -4 -4 -5 -9 -16 -22 -23 -23 -22 -23 -26 -27 -26 -24 -22 -17 -12 -8 -6 -5 -4 -3 -2
-1 -1 -3 -6 -7 -10 -15 -21 -24 -26 -22 -23 -27 -27 -27 -27 -27 -28 -29 -30 -31 -30 -30 -29 -28 -27 -26
-10 -13 -14 -13 -15 -18 -22 -26 -26 -25 -25 -25 -26 -23 -21 -19 -19 -18 -17 -18 -19 -20 -20 -20 -20 -22 -26
-24 -21 -20 -21 -21 -23 -25 -26 -26 -25 -23 -23 -20 -18 -17 -16 -16 -15 -15 -15 -15 -14 -14 -14 -14 -15 -15
-26 -24 -26 -27 -28 -28 -29 -29 -30 -25 -21 -18 -17 -16 -15 -15 -14 -14 -13 -13 -13 -12 -12 -12 -12 -12 -12
-23 -25 -26 -27 -29 -29 -30 -29 -28 -22 -17 -15 -16 -15 -15 -14 -12 -14 -13 -14 -13 -13 -12 -12 -12 -12 -12
-24 -24 -25 -26 -27 -27 -26 -24 -19 -16 -15 -15 -15 -15 -15 -14 -15 -15 -15 -13 -12 -12 -13 -13 -12 -12 -12
-25 -25 -25 -25 -24 -23 -21 -18 -16 -15 -15 -15 -15 -15 -15 -16 -16 -15 -14 -14 -14 -14 -14 -13 -12 -11 -11
-26 -26 -25 -24 -23 -21 -18 -16 -15 -15 -15 -15 -15 -15 -16 -16 -16 -16 -16 -16 -15 -14 -11 -11 -11 -11 -11
-26 -25 -25 -24 -22 -21 -20 -17 -16 -16 -16 -17 -17 -17 -18 -17 -17 -17 -16 -15 -14 -13 -12 -13 -13 -11 -11
-24 -25 -25 -24 -23 -23 -22 -22 -21 -19 -19 -19 -20 -19 -19 -18 -17 -16 -14 -14 -14 -14 -13 -15 -15 -13 -12
-24 -25 -25 -25 -25 -25 -25 -24 -23 -23 -22 -21 -21 -20 -19 -17 -14 -13 -14 -15 -16 -16 -15 -14 -18 -17 -16
-23 -23 -24 -24 -24 -25 -25 -25 -24 -23 -22 -22 -21 -19 -17 -13 -12 -12 -14 -15 -16 -16 -15 -15 -14 -15 -13

GFSFLT2_850_dewp_069.txt.gz
Dewpoint
5 6 5 4 4 3 3 1 -0 -1 -1 -2 -1 0 1 2 2 2 2 2 4 5 5 6 5 5 6
5 5 4 3 3 2 2 0 -0 -1 -1 -2 -2 -1 -0 0 1 1 2 2 3 3 3 3 3 4 4
3 3 3 2 2 1 -0 -0 -0 -1 -1 -2 -3 -4 -3 -2 -2 -1 0 1 1 2 2 2 2 2 2
2 2 2 1 0 -0 -0 -1 -1 -2 -4 -8 -15 -19 -18 -11 -6 -3 -2 -1 -0 0 0 -0 -0 1 2
1 0 0 -0 -0 -2 -2 -2 -5 -11 -19 -23 -23 -24 -24 -25 -25 -23 -18 -9 -4 -3 -2 -2 -2 -2 -2
-0 -0 -1 -1 -4 -6 -7 -11 -19 -23 -25 -24 -25 -28 -28 -27 -28 -29 -30 -30 -29 -28 -26 -26 -26 -25 -24
-1 -2 -3 -6 -8 -9 -12 -17 -23 -26 -25 -25 -26 -26 -24 -23 -22 -21 -20 -20 -21 -23 -24 -24 -25 -25 -26
-18 -16 -14 -14 -14 -17 -19 -22 -24 -25 -25 -23 -24 -21 -19 -18 -17 -17 -16 -16 -16 -16 -15 -15 -15 -16 -16
-25 -24 -23 -22 -22 -23 -25 -26 -27 -27 -23 -21 -19 -18 -17 -16 -15 -14 -14 -14 -14 -13 -13 -13 -13 -13 -13
-23 -26 -27 -26 -27 -28 -27 -28 -29 -28 -23 -18 -16 -16 -15 -14 -14 -13 -13 -14 -14 -14 -14 -14 -13 -13 -13
-22 -23 -25 -25 -26 -26 -27 -27 -26 -22 -16 -15 -16 -16 -16 -15 -13 -13 -15 -15 -15 -14 -13 -13 -13 -14 -13
-23 -25 -26 -25 -24 -25 -24 -22 -19 -17 -16 -16 -15 -15 -15 -16 -16 -16 -15 -14 -14 -14 -15 -15 -15 -14 -14
-25 -26 -25 -25 -25 -24 -23 -19 -17 -16 -15 -15 -15 -15 -15 -16 -16 -16 -16 -16 -16 -16 -15 -15 -13 -12 -12
-25 -25 -26 -26 -25 -25 -23 -19 -18 -16 -15 -16 -16 -16 -17 -17 -18 -17 -17 -17 -16 -15 -15 -15 -14 -14 -14
-23 -23 -23 -24 -24 -24 -23 -22 -21 -19 -19 -19 -19 -19 -19 -19 -19 -18 -17 -16 -13 -14 -15 -17 -17 -16 -15
-21 -22 -24 -25 -25 -26 -26 -25 -24 -23 -22 -22 -22 -21 -21 -20 -18 -17 -14 -13 -13 -14 -15 -16 -19 -18 -17
-21 -23 -23 -23 -24 -25 -25 -25 -25 -24 -24 -23 -23 -22 -21 -20 -17 -13 -12 -12 -13 -13 -14 -15 -17 -18 -16